FW7059 Weather Reports


time (UTC)temp
C
wind
direction
speed
KPH
gust
KPH
rain 1hr
cm
rain 24hr
cm
rain mn
cm
humidity
%
barometer
mb
20260509064707 9 111 0.0 0.0 0.00 0.00 0.00 99 1002.6
20260509064204 9 94 0.0 0.0 0.00 0.00 0.00 99 1002.7
20260509063701 9 98 0.0 0.0 0.00 0.00 0.00 99 1002.7
20260509063158 9 98 0.0 0.0 0.00 0.00 0.00 99 1002.6
20260509062655 9 116 0.0 0.0 0.00 0.00 0.00 99 1002.9
20260509062152 10 87 0.0 0.0 0.00 0.00 0.00 99 1002.7
20260509061649 10 96 0.0 0.0 0.00 0.00 0.00 99 1002.8
20260509061146 10 97 0.0 0.0 0.00 0.00 0.00 98 1002.8
20260509060644 10 107 0.0 0.0 0.00 0.00 0.00 98 1002.8
20260509060140 10 101 0.0 0.0 0.00 0.00 0.00 98 1003.0
20260509055635 10 97 0.0 0.0 0.00 0.00 0.00 98 1002.9
20260509055131 10 129 0.0 0.0 0.00 0.00 0.00 98 1003.0
20260509054628 10 108 0.0 0.0 0.00 0.00 0.00 97 1003.0
20260509054126 10 105 0.0 0.0 0.00 0.00 0.00 97 1003.1
20260509053624 10 97 0.0 0.0 0.00 0.00 0.00 97 1003.2
20260509053121 10 96 0.0 0.0 0.00 0.00 0.00 97 1003.2
20260509052619 10 93 0.0 0.0 0.00 0.00 0.00 97 1003.1
20260509052116 10 96 0.0 0.0 0.00 0.00 0.00 97 1003.3
20260509051614 10 109 0.0 0.0 0.00 0.00 0.00 97 1003.3
20260509051111 10 101 0.0 0.0 0.00 0.00 0.00 96 1003.0
20260509050608 10 104 0.0 0.0 0.00 0.00 0.00 96 1003.2
20260509050104 11 97 0.0 0.0 0.00 0.00 0.00 96 1003.3
20260509045602 11 103 0.0 0.0 0.00 0.00 0.00 96 1003.2
20260509045058 11 95 0.0 0.0 0.00 0.00 0.00 95 1003.3
20260509044556 11 104 0.0 0.0 0.00 0.00 0.00 95 1003.2
20260509044053 10 98 0.0 0.0 0.00 0.00 0.00 96 1003.3
20260509043549 11 97 0.0 0.0 0.00 0.00 0.00 96 1003.6
20260509043045 11 97 0.0 0.0 0.00 0.00 0.00 96 1003.5
20260509042541 11 121 0.0 0.0 0.00 0.00 0.00 96 1003.5
20260509042038 11 101 0.0 0.0 0.00 0.00 0.00 96 1003.5
20260509041534 11 118 0.0 0.0 0.00 0.00 0.00 95 1003.3
20260509041032 11 96 0.0 0.0 0.00 0.00 0.00 95 1003.3
20260509040531 11 101 0.0 0.0 0.00 0.00 0.00 95 1003.6
20260509040027 11 116 0.0 0.0 0.00 0.03 0.03 94 1003.6
20260509035524 11 99 0.0 0.0 0.00 0.03 0.03 94 1003.7
20260509035020 11 97 0.0 0.0 0.00 0.03 0.03 94 1003.5
20260509034519 11 109 0.0 0.0 0.00 0.03 0.03 93 1003.5
20260509034015 11 103 0.0 0.0 0.00 0.03 0.03 92 1003.8
20260509033512 11 96 0.0 0.0 0.00 0.03 0.03 92 1003.7
20260509033009 11 100 0.0 0.0 0.00 0.03 0.03 93 1003.9
20260509032507 11 98 0.0 0.0 0.00 0.03 0.03 93 1004.0
20260509032004 11 99 0.0 0.0 0.00 0.03 0.03 94 1003.9
20260509031501 11 113 0.0 0.0 0.00 0.03 0.03 93 1003.9
20260509030958 11 116 0.0 0.0 0.00 0.03 0.03 93 1004.0
20260509030456 11 95 0.0 0.0 0.00 0.03 0.03 93 1003.9
20260509025947 11 108 0.0 0.0 0.00 0.03 0.03 92 1004.0
20260509025443 11 115 0.0 0.0 0.00 0.03 0.03 92 1003.7
20260509024938 11 102 0.0 0.0 0.00 0.03 0.03 92 1004.0
20260509024434 11 106 0.0 0.0 0.00 0.03 0.03 92 1004.1
20260509023931 11 125 0.0 0.0 0.00 0.03 0.03 91 1004.1
20260509023429 11 97 0.0 0.0 0.00 0.03 0.03 90 1003.8
20260509022925 11 98 0.0 0.0 0.00 0.03 0.03 89 1004.0
20260509022423 11 104 0.0 0.0 0.00 0.03 0.03 89 1004.1
20260509021920 11 101 0.0 0.0 0.00 0.03 0.03 89 1004.1
20260509021417 11 102 0.0 0.0 0.00 0.03 0.03 88 1003.9
20260509020914 11 104 0.0 0.0 0.00 0.03 0.03 88 1004.0
20260509020412 11 102 0.0 0.0 0.00 0.03 0.03 87 1004.1
20260509015909 12 99 0.0 0.0 0.00 0.03 0.03 86 1004.2
20260509015408 12 103 0.0 0.0 0.00 0.03 0.03 86 1004.0
20260509014904 12 98 0.0 0.0 0.00 0.03 0.03 85 1004.0
20260509014401 12 98 0.0 0.0 0.00 0.03 0.03 85 1004.1
20260509013857 12 98 0.0 0.0 0.00 0.03 0.03 84 1003.9
20260509013354 12 102 0.0 0.0 0.00 0.03 0.03 84 1004.1
20260509012850 12 101 0.0 0.0 0.00 0.03 0.03 84 1004.0
20260509012347 12 108 0.0 0.0 0.00 0.03 0.03 83 1004.0
20260509011844 12 104 0.0 0.0 0.00 0.03 0.03 83 1003.9
20260509011341 12 106 0.0 0.0 0.00 0.03 0.03 82 1003.9
20260509010839 12 105 0.0 0.0 0.00 0.03 0.03 81 1003.9
20260509010336 13 112 0.0 0.0 0.00 0.03 0.03 82 1003.8
20260509005833 13 108 0.0 0.0 0.00 0.03 0.03 82 1003.7
20260509005326 13 105 0.0 0.0 0.00 0.03 0.03 77 1003.5
20260509004825 13 105 0.0 0.0 0.00 0.03 0.03 76 1003.7
20260509004322 14 105 0.0 0.0 0.00 0.03 0.03 80 1003.7
20260509003820 14 106 0.0 0.0 0.00 0.03 0.03 79 1003.7
20260509003318 15 107 0.0 0.0 0.00 0.03 0.03 76 1003.4
20260509002814 15 106 0.0 0.0 0.00 0.03 0.03 72 1003.6
20260509002312 15 106 0.0 0.0 0.00 0.03 0.03 71 1003.5
20260509001810 16 99 0.0 0.0 0.00 0.03 0.03 67 1003.5
20260509001305 16 88 0.0 0.0 0.00 0.03 0.03 65 1003.4
20260509000803 16 83 0.0 0.0 0.00 0.03 0.03 67 1003.4
20260509000303 16 105 0.0 0.0 0.00 0.03 0.03 65 1003.5
20260508235757 16 77 0.0 0.0 0.00 0.03 0.03 62 1003.4
20260508235254 17 234 0.0 0.0 0.00 0.03 0.03 60 1003.4
20260508234751 17 143 0.0 0.0 0.00 0.03 0.03 61 1003.4
20260508234247 17 104 0.0 0.0 0.00 0.03 0.03 63 1003.4
20260508233741 17 104 0.0 0.0 0.00 0.03 0.03 64 1003.6
20260508233239 16 90 0.0 0.0 0.00 0.03 0.03 64 1003.5
20260508232736 17 178 0.0 0.0 0.00 0.03 0.03 60 1003.6
20260508232232 17 177 0.0 4.8 0.00 0.03 0.03 60 1003.6
20260508231730 17 102 1.6 3.2 0.00 0.03 0.03 62 1003.5
20260508231226 18 158 1.6 3.2 0.00 0.03 0.03 60 1003.7
20260508230724 18 91 0.0 3.2 0.00 0.03 0.03 59 1003.5
20260508230220 17 69 1.6 3.2 0.00 0.03 0.03 61 1003.5
20260508225718 18 96 0.0 1.6 0.00 0.03 0.03 60 1003.7
20260508225214 18 95 0.0 1.6 0.00 0.03 0.03 58 1003.6
20260508224712 18 95 0.0 1.6 0.00 0.03 0.03 59 1003.7
20260508224209 18 85 0.0 1.6 0.00 0.03 0.03 58 1003.6
20260508223707 18 142 0.0 3.2 0.00 0.03 0.03 61 1003.7
20260508223204 17 27 1.6 1.6 0.00 0.03 0.03 61 1003.9
20260508222701 17 95 0.0 3.2 0.00 0.03 0.03 60 1003.8
20260508222158 17 68 3.2 11.3 0.00 0.03 0.03 60 1003.8
20260508221654 18 65 1.6 3.2 0.00 0.03 0.03 59 1004.0
20260508221149 18 97 0.0 1.6 0.00 0.03 0.03 57 1003.7
20260508220641 17 64 3.2 3.2 0.00 0.03 0.03 61 1004.0
20260508220138 18 121 1.6 3.2 0.00 0.03 0.03 64 1004.0
20260508215634 18 69 0.0 0.0 0.00 0.03 0.03 62 1003.8
20260508215131 17 98 0.0 0.0 0.00 0.03 0.03 63 1003.8
20260508214628 18 109 0.0 1.6 0.00 0.03 0.03 57 1003.7
20260508214125 18 208 3.2 3.2 0.00 0.03 0.03 59 1003.8
20260508213622 18 278 3.2 9.7 0.00 0.03 0.03 60 1003.8
20260508213118 18 171 3.2 8.0 0.00 0.03 0.03 61 1003.9
20260508212615 18 83 3.2 4.8 0.00 0.03 0.03 59 1004.1
20260508212111 18 206 3.2 3.2 0.00 0.03 0.03 59 1003.7
20260508211606 18 70 3.2 9.7 0.00 0.03 0.03 59 1004.2
20260508211103 17 96 3.2 4.8 0.00 0.03 0.03 59 1004.0
20260508210600 18 0 4.8 4.8 0.00 0.03 0.03 63 1004.1
20260508210057 18 98 3.2 8.0 0.00 0.03 0.03 60 1004.1
20260508205554 18 167 3.2 11.3 0.00 0.03 0.03 59 1004.3
20260508205050 18 74 1.6 3.2 0.00 0.03 0.03 60 1004.4
20260508204547 18 60 1.6 4.8 0.00 0.03 0.03 60 1004.5
20260508204043 18 192 1.6 11.3 0.00 0.03 0.03 66 1004.3
20260508203539 18 86 0.0 0.0 0.00 0.03 0.03 60 1004.5
20260508203035 19 160 0.0 0.0 0.00 0.03 0.03 60 1004.4
20260508202532 19 185 0.0 0.0 0.00 0.03 0.03 58 1004.4
20260508202029 18 86 0.0 1.6 0.00 0.03 0.03 56 1004.6
20260508201526 18 352 0.0 0.0 0.00 0.03 0.03 59 1004.5
20260508201022 18 198 0.0 0.0 0.00 0.03 0.03 61 1004.8
20260508200520 19 59 0.0 0.0 0.00 0.03 0.03 58 1004.8
20260508200015 18 101 0.0 0.0 0.00 0.03 0.03 60 1004.7
20260508195512 17 140 0.0 3.2 0.00 0.03 0.03 63 1004.8
20260508195008 17 97 0.0 1.6 0.00 0.03 0.03 68 1005.0
20260508194505 18 106 0.0 3.2 0.00 0.03 0.03 60 1004.8
20260508194003 17 250 4.8 9.7 0.00 0.03 0.03 61 1005.0
20260508193459 17 184 3.2 3.2 0.00 0.03 0.03 60 1005.0
20260508192956 18 86 0.0 1.6 0.00 0.03 0.03 63 1005.3
20260508192452 18 172 6.4 9.7 0.00 0.03 0.03 62 1005.0
20260508191949 18 83 0.0 4.8 0.00 0.03 0.03 64 1005.4
20260508191446 18 16 4.8 4.8 0.00 0.03 0.03 60 1005.4
20260508190943 18 255 4.8 4.8 0.00 0.03 0.03 63 1005.6
20260508190441 18 102 1.6 3.2 0.00 0.03 0.03 60 1005.6
20260508185936 17 342 8.0 9.7 0.00 0.03 0.03 63 1005.8
20260508185434 17 90 0.0 3.2 0.00 0.03 0.03 68 1005.8
20260508184931 17 271 1.6 4.8 0.00 0.03 0.03 66 1005.9
20260508184428 17 94 0.0 1.6 0.00 0.03 0.03 68 1006.0
20260508183925 17 95 1.6 3.2 0.00 0.03 0.03 62 1005.9
20260508183422 17 190 3.2 8.0 0.00 0.03 0.03 59 1006.0
20260508182917 17 177 4.8 8.0 0.00 0.03 0.03 58 1006.1
20260508182414 17 156 1.6 3.2 0.00 0.03 0.03 56 1006.5
20260508181909 16 75 3.2 4.8 0.00 0.03 0.03 55 1006.3
20260508181406 17 123 1.6 8.0 0.00 0.03 0.03 56 1006.2
20260508180904 16 71 3.2 4.8 0.00 0.03 0.03 57 1006.2
20260508180401 16 108 0.0 3.2 0.00 0.03 0.03 56 1006.3
20260508175856 16 79 0.0 3.2 0.00 0.03 0.03 57 1006.5
20260508175353 17 87 3.2 11.3 0.00 0.03 0.03 57 1006.5
20260508174852 17 80 0.0 0.0 0.00 0.03 0.03 57 1006.5
20260508174348 17 92 0.0 4.8 0.00 0.03 0.03 56 1006.4
20260508173845 16 76 0.0 1.6 0.00 0.03 0.03 55 1006.6
20260508173342 17 115 0.0 0.0 0.00 0.03 0.03 51 1006.7
20260508172837 17 89 1.6 1.6 0.00 0.03 0.03 58 1007.1
20260508172335 17 99 0.0 8.0 0.00 0.03 0.03 58 1007.0
20260508171832 17 112 0.0 0.0 0.00 0.03 0.03 54 1007.3
20260508171328 16 100 0.0 0.0 0.00 0.03 0.03 60 1007.0
20260508170825 16 64 0.0 0.0 0.00 0.03 0.03 57 1007.0
20260508170323 16 98 0.0 0.0 0.00 0.03 0.03 57 1007.3
20260508165819 16 215 0.0 0.0 0.00 0.03 0.03 55 1007.3
20260508165317 15 72 0.0 0.0 0.00 0.03 0.03 51 1007.3
20260508164812 16 69 0.0 0.0 0.00 0.03 0.03 55 1007.3
20260508164309 16 91 0.0 0.0 0.00 0.03 0.03 50 1007.5
20260508163808 16 106 0.0 0.0 0.00 0.03 0.03 58 1007.7
20260508163305 16 107 0.0 0.0 0.00 0.03 0.03 51 1007.5
20260508162800 16 130 0.0 0.0 0.00 0.03 0.03 46 1007.6
20260508162257 16 79 0.0 0.0 0.00 0.03 0.03 47 1007.8
20260508161754 16 1 0.0 0.0 0.00 0.03 0.03 49 1007.7
20260508161251 16 281 0.0 0.0 0.00 0.03 0.03 49 1007.9
20260508160749 16 180 0.0 0.0 0.00 0.03 0.03 59 1007.9
20260508160247 16 89 0.0 0.0 0.00 0.03 0.03 67 1008.1
20260508155743 16 141 0.0 0.0 0.00 0.03 0.03 61 1008.0
20260508155240 15 87 0.0 0.0 0.00 0.03 0.03 65 1008.0
20260508154737 16 70 0.0 0.0 0.00 0.03 0.03 65 1007.8
20260508154235 15 94 0.0 0.0 0.00 0.03 0.03 63 1008.0
20260508153731 15 98 0.0 0.0 0.00 0.03 0.03 71 1008.1
20260508153229 15 94 0.0 0.0 0.00 0.03 0.03 75 1008.0
20260508152725 14 98 0.0 0.0 0.00 0.03 0.03 77 1008.1
20260508152221 13 93 0.0 0.0 0.00 0.03 0.03 80 1007.9
20260508151717 14 107 0.0 0.0 0.00 0.03 0.03 83 1008.0
20260508151214 13 115 0.0 0.0 0.00 0.03 0.03 80 1008.0
20260508150711 13 128 0.0 0.0 0.00 0.03 0.03 83 1008.3
20260508150208 13 96 0.0 0.0 0.00 0.03 0.03 82 1008.1
20260508145704 13 148 0.0 0.0 0.00 0.03 0.03 80 1008.0
20260508145200 13 97 0.0 0.0 0.00 0.03 0.03 83 1008.0
20260508144657 12 94 0.0 0.0 0.00 0.03 0.03 84 1008.0
20260508144155 12 117 0.0 0.0 0.00 0.03 0.03 84 1007.9
20260508143653 13 75 0.0 0.0 0.00 0.03 0.03 85 1007.8
20260508143149 13 94 0.0 0.0 0.00 0.03 0.03 89 1008.0
20260508142645 12 30 0.0 0.0 0.00 0.03 0.03 88 1008.2
20260508142142 12 79 0.0 0.0 0.00 0.03 0.03 88 1008.0
20260508141639 12 91 0.0 0.0 0.00 0.03 0.03 90 1008.1
20260508141137 12 76 0.0 0.0 0.00 0.03 0.03 90 1008.5
20260508140634 12 94 0.0 0.0 0.00 0.03 0.03 94 1008.4
20260508140130 11 94 0.0 0.0 0.00 0.03 0.03 97 1008.3
20260508135626 10 62 0.0 0.0 0.00 0.03 0.03 98 1008.3
20260508135122 10 142 0.0 0.0 0.00 0.03 0.03 99 1008.5
20260508134619 10 105 0.0 0.0 0.00 0.03 0.03 99 1008.3
20260508134116 10 93 0.0 0.0 0.00 0.03 0.03 99 1008.4
20260508133613 10 92 0.0 0.0 0.00 0.03 0.03 99 1008.4
20260508133110 10 93 0.0 0.0 0.00 0.03 0.03 99 1008.3
20260508132608 9 97 0.0 0.0 0.00 0.03 0.03 99 1008.6
20260508132105 8 133 0.0 0.0 0.00 0.03 0.03 99 1008.3
20260508131600 8 93 0.0 0.0 0.00 0.03 0.03 99 1008.5
20260508131057 8 98 0.0 0.0 0.18 0.03 0.03 99 1008.5
20260508130554 8 93 0.0 0.0 0.18 0.03 0.03 99 1008.6
20260508130050 8 99 0.0 0.0 0.00 0.00 0.00 99 1008.5
20260508125546 8 97 0.0 0.0 0.00 0.00 0.00 99 1008.7
20260508125044 7 95 0.0 0.0 0.00 0.00 0.00 99 1008.5
20260508124542 7 91 0.0 0.0 0.00 0.00 0.00 99 1008.3
20260508124038 7 96 0.0 0.0 0.00 0.00 0.00 99 1008.8
20260508123537 7 97 0.0 0.0 0.00 0.00 0.00 99 1008.7
20260508123033 7 94 0.0 0.0 0.00 0.00 0.00 99 1008.4
20260508122530 7 126 0.0 0.0 0.00 0.00 0.00 99 1008.5
20260508122027 6 94 0.0 0.0 0.00 0.00 0.00 99 1008.5
20260508121525 6 96 0.0 0.0 0.00 0.00 0.00 99 1008.3
20260508121023 6 97 0.0 0.0 0.00 0.00 0.00 99 1008.3
20260508120520 6 97 0.0 0.0 0.00 0.00 0.00 99 1008.4
20260508120018 5 107 0.0 0.0 0.00 0.00 0.00 99 1008.4
20260508115516 5 93 0.0 0.0 0.00 0.00 0.00 99 1008.2
20260508115012 5 96 0.0 0.0 0.00 0.00 0.00 99 1008.1
20260508114509 5 113 0.0 0.0 0.00 0.00 0.00 99 1008.3
20260508114005 5 94 0.0 0.0 0.00 0.00 0.00 99 1008.3
20260508113503 5 95 0.0 0.0 0.00 0.00 0.00 99 1008.3
20260508113000 3 96 0.0 0.0 0.00 0.00 0.00 99 1008.2
20260508112457 3 93 0.0 0.0 0.00 0.00 0.00 99 1008.0
20260508111954 3 93 0.0 0.0 0.00 0.00 0.00 99 1008.2
20260508111450 3 96 0.0 0.0 0.00 0.00 0.00 99 1008.2
20260508110947 3 102 0.0 0.0 0.00 0.00 0.00 99 1008.2
20260508110445 3 105 0.0 0.0 0.00 0.00 0.00 99 1008.1
20260508105945 2 100 0.0 0.0 0.00 0.00 0.00 99 1008.0
20260508105441 2 112 0.0 0.0 0.00 0.00 0.00 99 1007.9
20260508104939 2 97 0.0 0.0 0.00 0.00 0.00 99 1008.0
20260508104436 2 93 0.0 0.0 0.00 0.00 0.00 99 1007.9
20260508103932 2 97 0.0 0.0 0.00 0.00 0.00 99 1007.9
20260508103430 3 98 0.0 0.0 0.00 0.00 0.00 99 1007.6
20260508102927 3 101 0.0 0.0 0.00 0.00 0.00 99 1007.9
20260508102425 3 96 0.0 0.0 0.00 0.00 0.00 99 1007.8
20260508101922 3 96 0.0 0.0 0.00 0.00 0.00 99 1008.0
20260508101420 2 93 0.0 0.0 0.00 0.00 0.00 99 1008.0
20260508100916 2 93 0.0 0.0 0.00 0.00 0.00 99 1008.0
20260508100416 3 92 0.0 0.0 0.00 0.00 0.00 99 1008.2
20260508095911 3 98 0.0 0.0 0.00 0.00 0.00 99 1008.1
20260508095409 3 105 0.0 0.0 0.00 0.00 0.00 99 1007.7
20260508094905 3 95 0.0 0.0 0.00 0.00 0.00 99 1007.9
20260508094402 3 95 0.0 0.0 0.00 0.00 0.00 99 1007.8
20260508093859 3 96 0.0 0.0 0.00 0.00 0.00 99 1007.8
20260508093357 3 99 0.0 0.0 0.00 0.00 0.00 99 1007.7
20260508092854 3 95 0.0 0.0 0.00 0.00 0.00 99 1007.8
20260508092352 3 93 0.0 0.0 0.00 0.00 0.00 99 1008.0
20260508091850 3 106 0.0 0.0 0.00 0.00 0.00 99 1007.8
20260508091346 3 108 0.0 0.0 0.00 0.00 0.00 99 1008.1
20260508090844 3 98 0.0 0.0 0.00 0.00 0.00 99 1008.1
20260508090342 3 93 0.0 0.0 0.00 0.00 0.00 99 1008.0
20260508085837 3 93 0.0 0.0 0.00 0.00 0.00 99 1008.1
20260508085334 3 93 0.0 0.0 0.00 0.00 0.00 99 1008.2
20260508084831 3 98 0.0 0.0 0.00 0.00 0.00 99 1008.0
20260508084328 3 102 0.0 0.0 0.00 0.00 0.00 99 1008.1
20260508083826 3 96 0.0 0.0 0.00 0.00 0.00 99 1008.0
20260508083323 3 95 0.0 0.0 0.00 0.00 0.00 99 1008.0
20260508082822 3 96 0.0 0.0 0.00 0.00 0.00 99 1008.0
20260508082320 3 96 0.0 0.0 0.00 0.00 0.00 99 1008.0
20260508081817 3 104 0.0 0.0 0.00 0.00 0.00 99 1008.0
20260508081314 3 101 0.0 0.0 0.00 0.00 0.00 99 1008.1
20260508080811 3 103 0.0 0.0 0.00 0.00 0.00 99 1008.1
20260508080309 3 96 0.0 0.0 0.00 0.00 0.00 99 1008.0
20260508075805 4 97 0.0 0.0 0.00 0.00 0.00 99 1008.0
20260508075307 4 99 0.0 0.0 0.00 0.00 0.00 99 1007.9
20260508074801 4 97 0.0 0.0 0.00 0.00 0.00 99 1008.1
20260508074257 4 96 0.0 0.0 0.00 0.00 0.00 99 1008.1
20260508073754 4 96 0.0 0.0 0.00 0.00 0.00 99 1008.3
20260508073253 4 96 0.0 0.0 0.00 0.00 0.00 99 1008.0
20260508072748 4 96 0.0 0.0 0.00 0.00 0.00 99 1008.2
20260508072245 4 99 0.0 0.0 0.00 0.00 0.00 99 1008.2
20260508071742 4 98 0.0 0.0 0.00 0.00 0.00 99 1008.1
20260508071241 4 103 0.0 0.0 0.00 0.00 0.00 99 1008.0
20260508070737 4 98 0.0 0.0 0.00 0.00 0.00 99 1008.2
20260508070236 4 96 0.0 0.0 0.00 0.00 0.00 99 1008.4
20260508065733 4 97 0.0 0.0 0.00 0.00 0.00 99 1008.2
20260508065231 4 97 0.0 0.0 0.00 0.00 0.00 99 1008.2